Regional Weather Roundup
Issued by NWS Grand Forks, ND

Home | Current Version | Previous Version | Graphics & Text | Print | Product List | Glossary On
Versions: 1 2 3 4 5 6 7 8 9 10 11 12 13 14 15 16 17 18 19 20 21 22 23 24 25 26 27 28 29 30 31 32 33 34 35 36 37 38 39 40 41 42 43 44 45 46 47 48 49 50
000
ASUS43 KFGF 260431
RWRFGF
PRAIRIE TO PINES  WEATHER ROUNDUP
NATIONAL WEATHER SERVICE EASTERN NORTH DAKOTA/GRAND FORKS ND
1000 PM CST THU DEC 25 2014

 **SATELLITE DATA USED TO AUGMENT SKY COVER AT AUTOMATED STATIONS**
 *****  WEATHER ACROSS EASTERN NORTH DAKOTA  *****

CITY           SKY/WX    TMP DP  RH WIND       PRES   REMARKS
GRAND FORKS    CLOUDY    25  21  85 N9        30.00R WCI  15
GRAND FRKS AFB CLOUDY    25  23  91 N8        30.00R WCI  17
GRAND FRKS NWS   N/A     25 N/A N/A VRB6        N/A  WCI  18
DEVILS LAKE    CLOUDY    23  19  86 NW9       29.99R WCI  13
FARGO          CLOUDY    27  22  81 N12       29.98R WCI  17
WAHPETON ARPT  CLOUDY    28  23  80 N13       29.96S WCI  18
$$

 ***** WEATHER ACROSS CENTRAL AND WESTERN NORTH DAKOTA  *****

CITY           SKY/WX    TMP DP  RH WIND       PRES   REMARKS
BISMARCK       CLOUDY    25  20  81 NW9       30.01R WCI  15
MINOT          CLOUDY    19  13  77 NW15      30.03R WCI   5
JAMESTOWN      CLOUDY    25  21  85 N9        29.96R WCI  15
MINOT AFB      CLOUDY    18  16  91 NW18      30.02R WCI   2
GARRISON         N/A     23  18  81 NW14      30.01R WCI  11
WILLISTON      CLOUDY    19  13  77 NW8       30.07R WCI   9
DICKINSON      CLOUDY    22  16  78 NW10      29.98R WCI  11
HETTINGER      CLOUDY    22  16  78 N13       29.99R WCI  10
$$

 *****  OTHER AIRPORT OBSERVATIONS IN OUR AREA  *****

CITY           SKY/WX    TMP DP  RH WIND       PRES   REMARKS
WALHALLA         N/A     25  21  86 N8        30.01R WCI  16
GRAFTON AIRPOR NOT AVBL
VALLEY CITY AR CLOUDY    25  25 100 N9        29.97R WCI  15
CANDO          CLOUDY    21  19  93 NW12      30.01R WCI   9
CAVALIER APRT  CLOUDY    25  23  93 N6        30.01R WCI  18
GWINNER        CLOUDY    28  28 100 N10       29.97R WCI  19
SHEYENNE NWR     N/A     26  21  81 NE7       29.95  WCI  18
ROLLA          CLOUDY    18  18 100 NW7       29.99R WCI   8
 ***** THE ABOVE OBSERVATIONS ARE NON NWS ARE NOT QUALITY
       CONTROLLED AND MAY MIS-REPORT RAIN FOR SNOW...
$$

  *****  WEATHER ACROSS NORTHERN MINNESOTA  *****

CITY           SKY/WX    TMP DP  RH WIND       PRES   REMARKS
FLAG ISLAND    CLOUDY    25  21  86 NW16      29.93R WCI  12
WARROAD        CLOUDY    25  21  86 W8        29.95R WCI  16
ROSEAU         CLOUDY    27  19  74 NW7       29.96R WCI  19
HALLOCK        CLOUDY    25  21  86 N9        30.00R WCI  15
THF RVR FALLS  CLOUDY    27  21  80 NW10      29.96R WCI  17
BAUDETTE       CLOUDY    25  22  88 NW14      29.92R WCI  13
WASKISH        CLOUDY    27  23  86 CALM      29.92R
CROOKSTON      CLOUDY    27  21  80 N12       30.00R WCI  16
STEPHEN NDAWN    N/A     25  14  63 N10         N/A  WCI  15
GREENBUSH NDAW   N/A     25  23  93 NW9         N/A  WCI  15
$$
  *****  WEATHER ACROSS CENTRAL AND WEST MINNESOTA  *****

CITY           SKY/WX    TMP DP  RH WIND       PRES   REMARKS
FOSSTON        CLOUDY    23  21  93 N7        29.95R WCI  15
BEMIDJI        CLOUDY    25  21  86 N3        29.92R
PARK RAPIDS    CLOUDY    26  21  81 N12       29.90R WCI  16
ELBOW LAKE     CLOUDY    26  23  86 N12       29.92R WCI  16
WADENA         CLOUDY    27  23  86 NW7       29.90R WCI  19
DETROIT LAKES  CLOUDY    27  23  86 N3        29.94R
MOORHEAD       CLOUDY    27  27 100 CALM      29.98R
FERGUS FALLS   CLOUDY    27  19  74 N9        29.96S WCI  17
MORRIS MN      LGT SNOW  28  27  93 N9        29.91R WCI  20
STAPLES        CLOUDY    28  23  80 N6        29.90R WCI  22
$$
  *****  WEATHER ELSEWHERE ACROSS MINNESOTA  *****

CITY           SKY/WX    TMP DP  RH WIND       PRES   REMARKS
DULUTH         CLOUDY    30  24  78 N3        29.86R
INTRNTL FALLS  CLOUDY    27  23  85 W6        29.89R WCI  20
ELY            CLOUDY    27  23  86 NW5       29.87R WCI  21
CLOQUET        CLOUDY    30  25  80 CALM      29.87S
WHEATON        CLOUDY    25  21  86 N10       29.96S WCI  15
BRAINERD       CLOUDY    30  25  81 N3        29.89R
HIBBING        CLOUDY    30  21  69 N8        29.87R WCI  22
ALEXANDRIA     CLOUDY    29  24  82 N9        29.89R WCI  20
SAINT CLOUD    LGT SNOW  33  29  85 N8        29.88S VSB 1
MINNEAPOLIS    MOCLDY    31  28  89 N6        29.86R
$$

  *****  WEATHER ACROSS SOUTH DAKOTA  *****

CITY           SKY/WX    TMP DP  RH WIND       PRES   REMARKS
SIOUX FALLS    CLOUDY    30  27  88 N16G25    29.82R WCI  19
BROOKINGS      NOT AVBL
WATERTOWN      LGT SNOW  26  24  92 N8        29.89R FOG     WCI  18
HURON          LGT SNOW  26  24  92 N14       29.92F FOG     WCI  14
SISSETON         N/A     28  25  88 N14       29.93  WCI  17
ABERDEEN       CLOUDY    28  23  81 N9        29.96R WCI  19
MITCHELL       MIX PCPN  27  25  92 N18       29.89S WCI  14
PIERRE         CLOUDY    26  22  84 N14       29.95S WCI  14
MOBRIDGE       CLOUDY    28  22  78 N10       29.95R WCI  19
RAPID CITY     CLOUDY    21  17  84 N16       29.97R WCI   7
$$

  *****  SOME WEATHER IN NEARBY STATES *****

CITY           SKY/WX    TMP DP  RH WIND       PRES   REMARKS
GLASGOW MT     CLOUDY    21  14  74 E5        30.04R WCI  15
GREAT FALLS MT CLEAR     15  10  80 S12       29.92R WCI   2
CHEYENNE WY    FOG       17  14  88 NE9       29.79R VSB 1/2 WCI   6
SCOTTSBLUFF NE LGT SNOW  23  19  85 N10       29.89R FOG     WCI  12
OMAHA NE       MOCLDY    36  30  79 S3        29.72R
DES MOINES IA  CLOUDY    42  30  62 SE12      29.77S
DAVENPORT IA   MOCLDY    40  32  73 S15       29.92R
CHICAGO IL     CLOUDY    39  33  79 S18       30.00R
EAU CLAIRE WI  MOCLDY    30  27  88 NE3       29.87R
LA CROSSE WI   MOCLDY    31  28  89 CALM      29.86S
$$

  *****  SOME NATIONAL WEATHER *****

CITY           SKY/WX    TMP DP  RH WIND       PRES   REMARKS
LA GUARDIA NY  CLEAR     46  28  49 W13       30.09R
RALEIGH NC     CLEAR     36  32  85 CALM      30.27R
ATLANTA GA     MOCLDY    42  34  73 CALM      30.24F
NEW ORLEANS LA MOCLDY    48  41  76 E7        30.20F
OKLAHOMA CITY  MOCLDY    50  28  42 S22G29    29.79F
ALBUQUERQUE NM MOCLDY    38  30  73 N10G25    29.72R
SALT LAKE CITY FLURRIES  28  26  92 N8        29.80S WCI  20
LOS ANGELES CA CLEAR     54  21  27 N14G21    29.90R
BOISE ID       CLEAR     29  22  75 NW15      30.04R WCI  18
SEATTLE WA     MOCLDY    38  36  92 S6        30.26S
$$

*** WEATHER ACROSS MANITOBA...SASKATCHEWAN AND ONTARIO ***
                ***ONTARIO***

CITY           SKY/WX    TMP DP  RH WIND       PRES   REMARKS
GERALDTON      CLOUDY    28  28 100 SW6       29.78R WCI  22
THUNDER BAY    CLOUDY    30  27  86 SW6       29.87R WCI  24
SIOUX LOOKOUT  FLURRIES  28  27  93 NW7       29.83R WCI  21
TORONTO        CLOUDY    37  28  70 W13G21    30.09
BIG TROUT LK   FLURRIES  19  18  93 NW8       29.76R WCI   9
PICKLE LAKE    NOT AVBL
DRYDEN         FLURRIES  27  25  93 W9        29.85R WCI  17
KENORA         LGT SNOW  23  23 100 NW7       29.89  FOG     WCI  15
$$
                *** MANITOBA***

CITY           SKY/WX    TMP DP  RH WIND       PRES   REMARKS
BRANDON        CLOUDY    18  14  86 NW17      30.01R WCI   2
DAUPHIN        FLURRIES  12  10  92 NE8       30.04R WCI   1
ISLAND LAKE    FLURRIES  21  18  86 W9        29.86R WCI  11
PILOT MOUND      N/A     19  18  93 NW12        N/A  WCI   7
THE PAS        FLURRIES  -2  -8  78 NW12      30.09R WCI -20
THOMPSON       FLURRIES  -6 -11  77 NW14      29.99  WCI -26
WINNIPEG       FLURRIES  23  21  93 NW14      29.99R WCI  11
CHURCHILL      LGT SNOW  -2  -6  84 NW15      29.92R DRFTSNOWWCI -22
GILLAM         LGT SNOW   5   0  78 NW8       29.91R WCI  -8
$$
                ***SASKATCHEWAN***

CITY           SKY/WX    TMP DP  RH WIND       PRES   REMARKS
ESTEVAN        FLURRIES   5   0  78 NW10      30.07R WCI -10
KINDERSLEY     FLURRIES   9   5  85 S5        30.02  WCI   0
LLOYDMINSTER   FLURRIES   7   5  92 SE2       30.02R
PRINCE ALBERT  PTCLDY   -11 -17  77 N7        30.11R WCI -26
REGINA         PTCLDY    -6  -9  84 NW6       30.08R WCI -18
YORKTON        CLEAR     -8 -11  84 W12       30.06R WCI -27
N. BATTLEFORD  CLOUDY     5   1  85 CALM      30.09S
LA RONGE       PTCLDY   -11 -15  84 W6        30.12  WCI -25
SASKATOON      CLOUDY    -2  -8  78 CALM      30.11R
SWIFT CURRENT  LGT SNOW   7   5  92 E5        29.99F VSB 1   WCI  -2
$$
NOTE: THESE ARE AUTOMATED STATIONS WITH LIMITED QUALITY CONTROL
      "FAIR" INDICATES FEW OR NO CLOUDS BELOW 12,000 FEET WITH NO
      SIGNIFICANT WEATHER AND/OR OBSTRUCTIONS TO VISIBILITY.
      SKY/WX - SKY CONDITION AND SIGNIFICANT WEATHER.
      TMP - AIR TEMPERATURE.    DP   - DEWPOINT TEMPERATURE.
      RH  - RELATIVE HUMIDITY.  PRES - PRESSURE.
      HX  - HEAT INDEX.         WCI  - WIND CHILL INDEX.
$


USA.gov is the U.S. government's official web portal to all federal, state and local government web resources and services.